Content
SEND FEEDBACK

Daily
Averages
Monthly
Summary
Russia

GUSEVSKIY, RUSSIA


Home > Europe > Russia
Elevation: 384 feet     Latitude: 51 45N     Longitude: 055 06E

WEATHER
 
SELECT A DAY
Number of Records: 170,128;   Date Range: 3/24/97 - 11/20/14
 
SHARE

PRINT THIS DATA

[ ← Previous Day ]
WEATHER ALMANAC - FEBRUARY 13, 2013
[ Next Day → ]
[ °C ]   °F
Weather ElementAverageHighLow
Temperature8 °F21.2 °F (4:30 pm)-0.4 °F (6:00 am)
Dewpoint-0.6 °F8.6 °F (5:30 pm)-7.6 °F (6:00 am)
Humidity66.6 %79 % (5:00 am)38 % (3:00 pm)
Barometer30.60 in30.65 in (3:00 am)30.57 in (5:30 pm)
Wind Speed5.4 mph8.9 mph (1:00 am)
Weather ElementAverage
Visibility5.4 mi
Wind DirectionNE (47.3 °)

Weather ElementTotal
Precipitation---
Heating Degree Days54.6 (Base 65)
Averaged from 55 records on February 13, 2013
WEATHER CONDITIONS BREAKOUT
WIND DIRECTION BREAKOUT
WEATHER BY HOUR - FEBRUARY 13, 2013
[ °C ]   °F
Local TimeTemperatureDewpointHumidityBarometerVisibilityWind DirectionWind SpeedGust SpeedPrecipitationEventsConditions
12:00 AM6.8 °F-2.2 °F67 %30.63 in3.7 miENE (60°)6.7 mphClear
12:30 AM8.6 °F-0.4 °F67 %30.63 in3.7 miNNE (30°)6.7 mphClear
1:00 AM6.8 °F-0.4 °F72 %30.60 in3.7 miNE (50°)8.9 mphClear
1:30 AM5.0 °F-2.2 °F72 %30.60 in3.7 miNE (40°)6.7 mphClear
2:00 AM6.8 °F-2.2 °F67 %30.60 in3.7 miENE (60°)6.7 mphClear
2:30 AM5.0 °F-2.2 °F72 %30.60 in3.7 miNE (50°)6.7 mphClear
3:00 AM6.8 °F-0.4 °F72 %30.60 in3.7 miNE (50°)4.5 mphClear
3:00 AM9.0 °F-1.0 °F50 %30.65 in12.0 miEast (100°)6.7 mph
3:30 AM1.4 °F-5.8 °F72 %30.63 in3.7 miVariable2.2 mphClear
4:00 AM1.4 °F-4.0 °F78 %30.63 in3.7 miENE (60°)2.2 mphClear
4:30 AM5.0 °F-0.4 °F78 %30.63 in3.7 miVariable4.5 mphClear
5:00 AM6.8 °F1.4 °F79 %30.60 in3.7 miEast (90°)4.5 mphScattered Clouds
5:30 AM3.2 °F-2.2 °F78 %30.60 in3.7 miEast (100°)4.5 mphScattered Clouds
6:00 AM-0.4 °F-7.6 °F72 %30.60 in3.7 miEast (80°)4.5 mphScattered Clouds
6:00 AM6.0 °F-3.0 °F51 %30.65 in12.0 miESE (120°)6.7 mph
6:30 AM3.2 °F-4.0 °F72 %30.60 in3.7 miNE (50°)6.7 mphScattered Clouds
7:00 AM1.4 °F-5.8 °F72 %30.60 in3.7 miENE (60°)6.7 mphScattered Clouds
7:30 AM3.2 °F-4.0 °F72 %30.60 in3.7 miENE (60°)6.7 mphScattered Clouds
8:00 AM5.0 °F-2.2 °F72 %30.63 in3.7 miENE (60°)4.5 mphScattered Clouds
8:30 AM5.0 °F-2.2 °F72 %30.60 in3.7 miEast (90°)8.9 mphScattered Clouds
9:00 AM1.4 °F-5.8 °F72 %30.60 in3.7 miENE (60°)4.5 mphScattered Clouds
9:00 AM4.0 °F-4.0 °F56 %30.65 in12.0 miEast (90°)4.5 mphClear
9:30 AM1.4 °F-4.0 °F78 %30.60 inENE (70°)4.5 mphMostly Cloudy
10:00 AM-0.4 °F-5.8 °F78 %30.63 inNE (50°)6.7 mphMostly Cloudy
10:30 AM-0.4 °F-5.8 °F78 %30.60 inNE (40°)6.7 mphScattered Clouds
11:00 AM-0.4 °F-5.8 °F78 %30.60 inVariable6.7 mphScattered Clouds
11:30 AM3.2 °F-4.0 °F72 %30.63 inNorthScattered Clouds
12:00 PM5.0 °F-4.0 °F66 %30.63 inNE (50°)6.7 mphScattered Clouds
12:00 PM7.0 °F-4.0 °F46 %30.65 in12.0 miEast (90°)4.5 mphClear
12:30 PM6.8 °F-2.2 °F67 %30.60 inNE (50°)6.7 mphScattered Clouds
1:00 PM10.4 °F-0.4 °F62 %30.63 inVariable6.7 mphScattered Clouds
1:30 PM12.2 °F1.4 °F62 %30.63 inNE (50°)6.7 mphScattered Clouds
2:00 PM14.0 °F3.2 °F62 %30.60 inNE (50°)6.7 mphScattered Clouds
2:30 PM15.8 °F3.2 °F58 %30.60 inENE (70°)6.7 mphMostly Cloudy
3:00 PM17.6 °F5.0 °F58 %30.60 inVariable6.7 mphMostly Cloudy
3:00 PM15.0 °F1.0 °F38 %30.63 in12.0 miEast (90°)4.5 mphClear
3:30 PM17.6 °F6.8 °F63 %30.60 inVariable4.5 mphMostly Cloudy
4:00 PM19.4 °F6.8 °F58 %30.60 inVariable4.5 mphMostly Cloudy
4:30 PM21.2 °F6.8 °F54 %30.60 inVariable4.5 mphMostly Cloudy
5:00 PM21.2 °F6.8 °F54 %30.60 inVariable2.2 mphMostly Cloudy
5:30 PM21.2 °F8.6 °F58 %30.57 inVariable2.2 mphMostly Cloudy
6:00 PM19.4 °F6.8 °F58 %30.57 inVariable2.2 mphMostly Cloudy
6:00 PM17.0 °F4.0 °F42 %30.62 in12.0 miESE (110°)4.5 mphClear
6:30 PM15.8 °F6.8 °F68 %30.57 inVariable4.5 mphMostly Cloudy
7:00 PM14.0 °F5.0 °F67 %30.57 inVariable4.5 mphMostly Cloudy
7:30 PM10.4 °F3.2 °F73 %30.57 inVariable4.5 mphMostly Cloudy
8:00 PM8.6 °F1.4 °F73 %30.57 in3.7 miNE (50°)6.7 mphMostly Cloudy
8:30 PM8.6 °F-0.4 °F67 %30.57 in3.7 miNE (40°)6.7 mphMostly Cloudy
9:00 PM6.8 °F-0.4 °F72 %30.60 in3.7 miEast (80°)4.5 mphMostly Cloudy
9:00 PM13.0 °F2.0 °F46 %30.62 in12.0 miESE (110°)6.7 mphClear
9:30 PM6.8 °F-0.4 °F72 %30.57 in3.7 miNE (40°)6.7 mphMostly Cloudy
10:00 PM5.0 °F-2.2 °F72 %30.57 in3.7 miNNE (30°)4.5 mphMostly Cloudy
10:30 PM3.2 °F-2.2 °F78 %30.57 in3.7 miENE (60°)4.5 mphMostly Cloudy
11:00 PM3.2 °F-4.0 °F72 %30.57 in3.7 miNE (50°)4.5 mphMostly Cloudy
11:30 PM-0.4 °F-5.8 °F78 %30.57 in3.7 miENE (60°)4.5 mphMostly Cloudy
Hourly data recorded from UWOO, located miles away from Gusevskiy, Russia







STORIES FROM OUR PARTNERS